User: anonymous   Login
Location: Unspecified
(0.0000°N, 0.0000°E)
Time: 19:01:41
(UTC+00:00)
Language:

DIAMOND GREEN - Orbit

View from above orbital plane
View from above orbital plane
View from above satellite
View from above satellite

Ground track
Ground track

The orbit data is extracted from the following two-line orbital elements,

1 42785U 17036W   19077.87257578 +.00001121 +00000-0 +52064-4 0  9992
2 42785 097.3633 137.4958 0011957 185.9659 174.1437 15.21996315096354
Epoch (UTC): 18 March 2019 20:56:30
Eccentricity: 0.0011957
inclination: 97.3633°
perigee height: 491 km
apogee height: 508 km
right ascension of ascending node: 137.4958°
argument of perigee: 185.9659°
revolutions per day: 15.21996315
mean anomaly at epoch: 174.1437°
orbit number at epoch: 9635

The dashed part of the orbit path shows where the satellite is in the earth's shadow,  

DLR